CZ-4 DEB

Satellite information

Favourite Embed

Satellite Type and Status

DEBRISIN ORBIT

Key statistics

Satellite CZ-4 DEB at a glance.

Uptime

12838

Days in orbit

Revolutions

≈ 14.1

Per day

Orbit

SSO

Sun Synchronous Orbit

Inclination

98.8

Latest

Satellite identification and parameters

Extended collection of information and parameters for CZ-4 DEB.

Object identification

Identified? True

Debris? True

Object name: CZ-4 DEB

International designator: 1990-081CZ

Object number (NORAD): 37613

Object ID (CCSDS): 37613

Country: PEOPLES REPUBLIC OF CHINA (PRC)

Current information (Y/N): Y

RCS size: SMALL

Orbital parameters

Period: 102.225 minutes

Inclination: 98.8498 deg

SMA: 7242.127 km

Apoapsis: 973.873 km

Periapsis: 754.111 km

RAAN: 123.5055 deg

Eccentricy: 0.0151725

Argument of periapsis: 349.9643 deg

Mean anomaly: 9.8506 deg

Mean motion: 14.08651578 rev/day

Mean motion (dot): 0.00004013 rev/day2

B* drag term: 0.0021196 1/REarth

Two-line elements (TLE)

Creation date: Oct. 25, 2025, 2:36 p.m.

Reference frame: TEME

Reference center: EARTH

Epoch: Oct. 25, 2025, 7:31 a.m. UTC

TLE line 0: 0 CZ-4 DEB

TLE line 1: 1 37613U 90081CZ 25298.31349922 .00004013 00000-0 21196-2 0 9996

TLE line 2: 2 37613 98.8498 123.5055 0151725 349.9643 9.8506 14.08651578 99605

Live tracking on map

Real-time ground track for satellite CZ-4 DEB.

In-orbit conjunctions

A list of the most updated potential collisions computed for object CZ-4 DEB.

Target Orbit TCA Probability of collision Miss distance Type
THORAD AGENA D DEB LEO 2025-07-04 23:35:19 0.0004081138 50.0 (m) DEBRIS
CZ-6A DEB LEO 2024-12-26 11:55:39 0.0001459228 383.0 (m) DEBRIS
DMSP 5D-2 F13 DEB SSO 2024-11-14 02:59:04 0.0001496122 998.0 (m) DEBRIS
SL-8 R/B LEO 2024-07-08 15:47:33 0.0002218772 755.0 (m) ROCKET BODY
FENGYUN 1C DEB SSO 2024-06-21 00:03:18 0.0003905888 66.0 (m) DEBRIS

Associated space launch

Chinese polar orbiting meteorological satellite

CZ-4 DEB was lifted into orbit during the mission ‘Long March 4A | Feng Yun 1B’, on board a Long March 4A space rocket.

The launch took place on Sept. 3, 1990, 12:53 a.m. from Launch Complex 7.

For more information about the launch, click the button.

Launch to space Long March 4A | Feng Yun 1B
Long March 4A | Feng Yun 1B

Agency: N/A

Status: Launch Successful

Launch date: Sept. 3, 1990, 12:53 a.m. UTC

Rocket: Long March 4A

Launch pad: Launch Complex 7

Location: Taiyuan Satellite Launch Center, People's Republic of China

...

Latest news about this satellite

There are no fresh news available about this satellite. Check back as we update our databases every day.


Newsletter sign-up

Weekly statistics, charts and insights to help you stay on top of the space industry.